www.pogodaiklimat.ru

Погода и климат >> Архив погоды >> Россия >> Якутия >> Витим


АРХИВ ПОГОДЫ в Витиме

Время (UTC), дата Ветер
(напр.,м/с)
 
Видим.   Явления Облачность Т
(С)
Тd
(С)
f
(%)
Тe
(С)
Тes
(С)
Комфортность P
(гПа)
Po
(гПа)
Тmin
(С)
Tmax
(С)
R
(мм)
R24
(мм)
S
(см)
06 15.08 Ю 1 20 км слаб. ливневой дождь 10/8 600 м
[Cb cap Cs]
+14.9 +13.3 90 +15 +17 1012.3 990.0
09 15.08 Ю 1 20 км {ливн. осадки} 10/4 600 м
[Cb cap Cs]
+15.0 +12.5 85 +16 +17 1012.6 990.3
12 15.08 штиль 0 20 км {ливн. осадки} 9/6 600 м
[Cb cap Ac lent Ci fib]
+15.0 +13.8 93 +15 +15 1012.5 990.2 +15.4 4
15 15.08 штиль 0 20 км {ливн. осадки} 9/8 600 м
[Cb cap Ac lent Ci fib]
+13.6 +12.7 94 +13 +13 1013.1 990.6
18 15.08 штиль 0 4000 м дымка {ливн. осадки} 9/6 600 м
[Cb cap Ac trans Ci fib]
+12.3 +11.9 97 +12 +12 1013.3 990.8
21 15.08 штиль 0 4000 м слаб. ливневой дождь 9/8 600 м
[Cb cap Ac trans]
+12.0 +11.6 97 +11 +11 1013.4 990.9
00 16.08 штиль 0 4000 м дымка {ливн. осадки} 10/8 600 м
[Cb cap Ac lent Cs]
+12.8 +12.4 97 +12 +13 1014.1 991.6 +11.8 0.6
03 16.08 штиль 0 4000 м дымка 10/6 600 м
[Cb cap Cs]
+14.8 +13.7 93 +14 +18 1014.2 991.9
06 16.08 штиль 0 20 км 10/5 600 м
[Cb cap Cs]
+16.5 +14.2 86 +16 +21 1014.0 991.8
09 16.08 Ю 2 20 км 10/5 600 м
[Cb cap Cs]
+16.7 +13.7 82 +17 +20 1014.0 991.8
12 16.08 С 2 20 км 10/6 600 м
[Cb cap Cs]
+14.8 +12.0 83 +14 +14 1014.4 992.0 +16.8
15 16.08 СЗ 1 20 км 10/4 600 м
[Cb cap Cs]
+13.8 +11.9 88 +14 +14 1014.5 992.0
18 16.08 штиль 0 20 км 10/5 600 м
[Cb cap Cs]
+13.1 -11.0 18 +13 +13 1014.7 992.2
21 16.08 С 1 20 км 10/6 600 м
[Cb cap Cs]
+12.5 +10.6 88 +12 +12 1014.1 991.6
00 17.08 С 2 20 км 10/5 600 м
[Cb cap Ac lent Cs]
+12.8 +10.7 87 +12 +13 1013.9 991.4 +12.4
03 17.08 С 3 20 км 10/6 600 м
[Cb cap Cs]
+14.2 +10.8 80 +13 +16 1013.1 990.7
06 17.08 СВ 2 20 км 10/8 600 м
[Cb cap Cs]
+14.6 +10.8 78 +14 +16 1012.5 990.1
09 17.08 С 1 20 км 10/8 600 м
[Cb cap Cs]
+15.2 +11.7 80 +16 +16 1011.7 989.4
12 17.08 С 1 20 км 10/6 600 м
[Cb cap Cs]
+14.3 +11.7 84 +15 +15 1011.5 989.1 +15.5
15 17.08 С 1 20 км 10/5 600 м
[Cb cap Cs]
+13.5 +11.6 88 +14 +14 1011.4 988.9
18 17.08 С 2 20 км 10/5 600 м
[Cb cap Cs]
+13.2 +11.5 89 +12 +12 1010.7 988.2
21 17.08 СВ 2 20 км 10/4 600 м
[Cb cap Cs]
+12.7 +10.4 86 +12 +12 1010.7 988.2
00 18.08 СВ 1 20 км 9/4 600 м
[Cb cap Ac trans]
+13.5 +10.8 84 +14 +15 1010.3 987.8 +12.6
03 18.08 С 1 20 км 9/5 600 м
[Cb cap Ac trans]
+14.6 +9.6 72 +15 +18 1010.1 987.7
06 18.08 штиль 0 20 км 9/6 600 м
[Cb cap Ac trans]
+15.8 +10.3 70 +16 +18 1009.8 987.5
09 18.08 штиль 0 20 км 9/4 600 м
[Cb cap Ac trans]
+17.2 +10.5 65 +17 +18 1009.0 987.0
12 18.08 штиль 0 20 км в посл. час ливневой дождь 10/6 600 м
[Cb cap Ac As]
+14.6 +13.2 91 +14 +14 1010.0 987.6 +17.5 0.4
15 18.08 штиль 0 20 км слаб. ливневой дождь 10/8 600 м
[Cb cap Ac As]
+14.1 +13.0 93 +14 +14 1009.6 987.3
18 18.08 С 2 20 км слаб. ливневой дождь 10/8 600 м
[Cb cap Ac As]
+12.5 +11.8 95 +11 +11 1010.1 987.6
21 18.08 СВ 3 20 км слаб. ливневой дождь 10/8 600 м
[Cb cap Ac As]
+11.8 +10.8 94 +10 +10 1010.7 988.1
00 19.08 СВ 2 20 км {ливн. осадки} 10/8 600 м
[Cb cap Ac As]
+12.4 +10.5 88 +11 +12 1011.3 988.8 +11.5 7
03 19.08 С 2 20 км слаб. ливневой дождь 10/8 600 м
[Cb cap Ac As]
+13.7 +10.9 83 +13 +14 1011.4 988.9
06 19.08 С 2 20 км слаб. ливневой дождь 9/6 600 м
[Cb cap Ac trans]
+14.8 +11.7 82 +14 +16 1011.1 988.7
09 19.08 С 5 20 км {ливн. осадки} 9/5 600 м
[Cb cap Ac lent Ci fib]
+16.5 +10.7 69 +16 +16 1010.8 988.6
12 19.08 С 2 20 км {ливн. осадки} 9/3 600 м
[Cb cap Ac lent Ci fib]
+14.8 +10.0 73 +15 +15 1011.2 988.8 +16.5 0.6
15 19.08 штиль 0 20 км {ливн. осадки} 9/5 600 м
[Cb cap Ac lent Cs]
+12.7 +11.2 91 +12 +12 1011.5 989.0
18 19.08 Ю 1 20 км {ливн. осадки} 10/5 600 м
[Cb cap Ac lent Cs]
+11.9 +10.6 92 +12 +12 1011.6 989.0
21 19.08 Ю 1 20 км слаб. ливневой дождь 10/6 600 м
[Cb cap Ac lent Cs]
+11.4 +10.2 92 +11 +11 1011.4 988.8
00 20.08 Ю 2 20 км {ливн. осадки} 10/5 600 м
[Cb cap Ac As]
+12.0 +11.0 94 +11 +11 1011.4 988.8 +11.5 0.7
03 20.08 Ю 3 20 км слаб. ливневой дождь 10/8 600 м
[Cb cap Ac As]
+13.1 +11.8 92 +12 +12 1011.6 989.1
06 20.08 Ю 4 20 км {ливн. осадки} 10/8 600 м
[Cb cap Ac As]
+15.3 +12.0 81 +14 +15 1011.7 989.4
09 20.08 Ю 2 20 км в посл. час ливневой дождь 9/8 600 м
[Cb cap Ac lent]
+14.2 +12.9 92 +14 +14 1012.1 989.7
12 20.08 штиль 0 20 км {ливн. осадки} 9/5 600 м
[Cb cap Ac lent]
+14.1 +12.5 90 +14 +14 1012.9 990.5 +16.3 3
15 20.08 штиль 0 4000 м дымка 9/3 600 м
[Cb cap Ac trans]
+11.7 +11.1 96 +11 +11 1014.0 991.4
18 20.08 штиль 0 4000 м дымка 9/3 600 м
[Cb cap Ac trans]
+11.4 +10.8 96 +11 +11 1014.2 991.6
21 20.08 штиль 0 500 м туман ?/? +11.7 +11.5 99 +11 +11 1014.5 991.9
00 21.08 СВ 1 1000 м дымка {туман} 10/0
[Ac As]
+11.7 +11.1 96 +11 +12 1015.4 992.7 +11.3 0.6
03 21.08 СВ 1 20 км 10/3 600 м
[Cb cap Ac As]
+12.7 +11.2 91 +13 +15 1015.7 993.0
06 21.08 В 1 20 км 6/3 1000 м
[Cb cap Ac lent Ci fib]
+18.0 +9.0 56 +19 +25 1014.3 992.1
09 21.08 СВ 1 20 км 5/3 1000 м
[Cb cap Ac lent Ci fib]
+20.0 +9.3 50 +22 +24 комфорт 1013.9 991.9
12 21.08 СЗ 1 20 км 8/0
[Ac lent Ci fib]
+16.3 +13.3 82 +17 +17 1013.7 991.5 +20.5
15 21.08 штиль 0 20 км 6/0
[Ci fib]
+11.1 +10.3 95 +10 +10 1014.5 991.9
18 21.08 штиль 0 500 м туман ?/? +9.5 +9.3 99 +9 +9 1015.7 992.8
21 21.08 штиль 0 500 м туман ?/? +9.6 +9.4 99 +9 +9 1015.4 992.5
00 22.08 штиль 0 500 м туман ?/? +9.9 +9.7 99 +9 +9 1015.6 992.7 +9.3 0.1
03 22.08 ЮВ 3 20 км {туман} 4/3 600 м
[Cu med, cong Ci fib]
+14.0 +10.6 80 +13 +18 1014.9 992.4

 

Местоположение метеостанции Витим (Якутия, Россия): широта 59.45 долгота 112.50 высота над уровнем моря 190 м.

В архиве по умолчанию представлена погода в Витиме за последнюю неделю. Архивные данные за месяц целиком и за предыдущие месяцы, начиная с января 2011 года, Вы можете получить, выбрав интересующий диапазон дат из раскрывающегося списка и нажав кнопку "Ввод!".


*Определитесь, кто Вы:
робот инопланетянин человек

Внимание! Время в таблицах - всемирное. Для получения местного времени необходимо прибавить поправку, которая равна 9 ч.

Смотрите также архив погоды в соседних городах и на ближайших метеорологических станциях:

Погода в Комаке (Якутия, Россия) (102 км)
Погода в Маме (Иркутская область, Россия) (127 км)
Погода в Ленске (Якутия, Россия) (190 км)
Погода в Мамакане (Иркутская область, Россия) (202 км)
Погода в Перевозе (Иркутская область, Россия) (255 км)
Погода в Преображенке (Иркутская область, Россия) (261 км)
Погода в Дорожном (Якутия, Россия) (267 км)
Погода в Маче (Якутия, Россия) (291 км)
Погода в Ербогачене (Иркутская область, Россия) (320 км)
Погода в Киренске (Иркутская область, Россия) (321 км)

Пояснения к столбцам:

Ветер - указаны скорость ветра в м/с - средняя за 10 мин, порывы в срок и между сроками (в фигурных скобках) и направление, откуда дует ветер: С - северный, СВ - северо-восточный, В - восточный, ЮВ - юго-восточный, Ю - южный, ЮЗ - юго-западный, З - западный, СЗ - северо-западный.
Видимость - горизонтальная дальность видимости в метрах или километрах. При видимости от 1 до 10 км при отсутствии осадков обычно наблюдается дымка, при ухудшении видимости до 1 км и менее - туман. В сухую погоду видимость может ухудшаться дымом, пылью или мглою.
Явления - указаны атмосферные явления, наблюдавшиеся в срок или в последний час перед сроком; фигурными скобками обозначены явления, наблюдавшиеся между сроками (за 1-3 часа до срока); квадратными скобками обозначены град или гололедные отложения с указанием их диаметра в мм.
Облачность - указаны через наклонную черту общая и нижняя облачность в баллах и высота нижней границы облаков в метрах; квадратными скобками обозначены формы облаков: Ci - перистые, Cs - перисто-слоистые, Cc - перисто-кучевые, Ac - высококучевые, As - высокослоистые, Sc - слоисто-кучевые, Ns - слоисто-дождевые, Cu - кучевые, Cb - кучево-дождевые. Подробнее классификацию облаков см. в Атласе облаков (PDF).
T - Температура воздуха - температура, измеренная на высоте 2 м над землей.
Td - Температура точки росы - температура, при понижении до которой содержащийся в воздухе водяной пар достигнет насыщения.
f - Относительная влажность воздуха - влажноcть воздуха, измеренная на высоте 2 м над землей.
Te - Эффективная температура - температура, которую ощущает одетый по сезону человек в тени. Характеристика душности погоды. При расчете учитывается влияние влажности воздуха и скорости ветра на теплоощущения человека.
Tes - Эффективная температура на солнце - температура, которую ощущает человек, с поправкой на солнечный нагрев. Характеристика знойности погоды. Зависит от высоты солнца над горизонтом, облачности и скорости ветра. Ночью, в пасмурную погоду, а также при ветре 12 м/с и более поправка равна нулю.
P - Атмосферное давление - приведенное к уровню моря атмосферное давление.
Po - Атмосферное давление - измеренное на уровне метеостанции атмосферное давление.
Tmin - Минимальная температура - минимум температуры воздуха на высоте 2 м над землей.
Tmax - Максимальная температура - максимум температуры воздуха на высоте 2 м над землей.
R - Количество осадков - Количество выпавших осадков за период времени, мм. При наведении курсора мыши на число - период времени, за который выпало указанное количество осадков.
R24 - Количество осадков - Количество выпавших осадков за 24 часа, мм.
S - Снежный покров - Высота снежного покрова, см. При наведении курсора мыши на число - состояние снежного покрова и степень покрытия местности в баллах.